This demonstration page uses our WeatherBlox Daily Observations layout. Learn more.

Left ArrowRight Arrow

39.51506, -84.39828

Hourly Observations for October 6, 2020

Temp ( °F °C ) Dew Point ( °F °C ) Humidity (%) Winds ( mph kmh ) Pressure ( in mb ) Visibility ( mi km ) Precip ( " mm )
12:15 am 00:15 Clear 41 5 N/A N/A Calm 30.18 1022 10 16.0934 0 0
12:35 am 00:35 Clear 39 4 N/A N/A Calm 30.17 1022 10 16.0934 0 0
12:55 am 00:55 Clear 39 4 N/A N/A Calm 30.18 1022 10 16.0934 0 0
1:15 am 01:15 Clear 39 4 N/A N/A Calm 30.17 1022 10 16.0934 0 0
1:35 am 01:35 Clear 39 4.1 39 4 99 99 Calm 30.17 1022 10 16.0934 0 0
1:55 am 01:55 Clear 39 3.8 39 3.8 100 100 Calm 30.18 1022 10 16.0934 0 0
2:15 am 02:15 Mostly Cloudy with Mist and Fog 37 3 N/A N/A Calm 30.17 1022 1.25 2.011675 0 0
2:35 am 02:35 Mostly Cloudy with Fog 37 3 N/A N/A Calm 30.16 1021 0.5 0.80467 0 0
2:55 am 02:55 Clear 37 3 N/A N/A Calm 30.16 1021 7 11.26538 0 0
3:15 am 03:15 Clear 39 4 N/A N/A Calm 30.15 1021 10 16.0934 0 0
3:35 am 03:35 Hazy 37 3 N/A N/A Calm 30.16 1021 4 6.43736 0 0
3:55 am 03:55 Hazy 37 3 N/A N/A Calm 30.16 1021 5 8.0467 0 0
4:15 am 04:15 Mostly Cloudy with Mist and Fog 37 3 N/A N/A Calm 30.16 1021 1.25 2.011675 0 0
4:35 am 04:35 Hazy 37 3 N/A N/A Calm 30.15 1021 4 6.43736 0 0
4:55 am 04:55 Clear with Mist and Fog 37 3 N/A N/A Calm 30.15 1021 3 4.82802 0 0
5:15 am 05:15 Clear with Mist and Fog 37 3 N/A N/A Calm 30.16 1021 3.5 5.63269 0 0
5:35 am 05:35 Hazy 37 3 N/A N/A Calm 30.16 1021 4 6.43736 0 0
5:55 am 05:55 Clear with Mist and Fog 37 3 N/A N/A Calm 30.16 1021 3.5 5.63269 0 0
6:15 am 06:15 Hazy 37 3 N/A N/A Calm 30.16 1021 5 8.0467 0 0
6:35 am 06:35 Clear with Mist and Fog 36 2 N/A N/A Calm 30.17 1022 2.5 4.02335 0 0
6:55 am 06:55 Mostly Cloudy with Fog 37 3 N/A N/A Calm 30.16 1021 0.5 0.80467 0 0
7:15 am 07:15 Mostly Cloudy with Mist and Fog 37 3 N/A N/A Calm 30.16 1021 1.25 2.011675 0 0
7:35 am 07:35 Mostly Clear with Fog 37 3 N/A N/A Calm 30.16 1021 0.25 0.402335 0 0
7:55 am 07:55 Mostly Cloudy with Fog 37 3 N/A N/A Calm 30.15 1021 N/A 0 0
8:15 am 08:15 Cloudy with Fog 37 3 N/A N/A Calm 30.15 1021 N/A 0 0
8:35 am 08:35 Mostly Cloudy with Mist and Fog 41 5 N/A N/A Calm 30.15 1021 1.5 2.41401 0 0
8:55 am 08:55 Hazy 43 6 N/A N/A Calm 30.15 1021 7 11.26538 0 0
9:15 am 09:15 Sunny 45 7 N/A N/A Calm 30.15 1021 10 16.0934 0 0
9:35 am 09:35 Sunny 46 8 N/A N/A SW 6 9 30.14 1021 10 16.0934 0 0
9:55 am 09:55 Sunny 49 9.5 47 8.5 94 94 SW 9 15 30.13 1020 10 16.0934 0 0
10:15 am 10:15 Sunny 51 10.6 48 8.9 89 89 WSW 8 13 30.13 1020 10 16.0934 0 0
10:35 am 10:35 Sunny 53 11.6 48 8.9 84 84 WSW 8 13 30.12 1020 10 16.0934 0 0
10:55 am 10:55 Sunny 56 13.1 48 9 76 76 WSW 12 19 30.11 1020 10 16.0934 0 0
11:15 am 11:15 Sunny 58 14.5 46 7.9 65 65 WSW 10 17 30.1 1019 10 16.0934 0 0
11:35 am 11:35 Sunny 60 15.5 46 7.8 60 60 WSW 14 22 30.1 1019 10 16.0934 0 0
11:55 am 11:55 Sunny 61 16.1 46 7.7 58 58 SW 15 24 30.08 1019 10 16.0934 0 0
12:15 pm 12:15 Sunny 63 17 46 7.7 55 55 WSW 13 20 30.07 1018 10 16.0934 0 0
12:35 pm 12:35 Sunny 64 17.5 46 7.6 52 52 WSW 14 22 30.07 1018 10 16.0934 0 0
12:55 pm 12:55 Sunny 65 18.2 46 7.7 51 51 SW 13 20 30.06 1018 10 16.0934 0 0
1:15 pm 13:15 Sunny 66 18.8 45 7 46 46 WSW 13 20 30.05 1018 10 16.0934 0 0
1:55 pm 13:55 Sunny 67 19.7 44 6.9 44 44 WSW 15 24 30.04 1017 10 16.0934 0 0
2:15 pm 14:15 Sunny 69 20.5 44 6.9 41 41 WSW 13 20 30.02 1017 10 16.0934 0 0
2:35 pm 14:35 Sunny 70 21.1 44 6.4 39 39 SW 15 24 30 1016 10 16.0934 0 0
2:55 pm 14:55 Sunny 71 21.5 43 6.3 37 37 SW 16 26 29.98 1015 10 16.0934 0 0
3:15 pm 15:15 Sunny 71 21.9 43 6 36 36 WSW 13 20 29.98 1015 10 16.0934 0 0
3:35 pm 15:35 Sunny 72 22 42 5.4 34 34 SW 15 24 29.96 1015 10 16.0934 0 0
3:55 pm 15:55 Sunny 73 22.5 42 5.5 33 33 SW 13 20 29.96 1015 10 16.0934 0 0
4:15 pm 16:15 Sunny 73 22.5 42 5.4 33 33 SW 17 28 29.96 1015 10 16.0934 0 0
4:35 pm 16:35 Partly Cloudy 73 22.6 43 6.1 34 34 WSW 17 28 29.95 1014 10 16.0934 0 0
4:55 pm 16:55 Partly Cloudy 73 22.6 44 6.7 36 36 SW 13 20 29.95 1014 10 16.0934 0 0
5:15 pm 17:15 Sunny 72 22.2 43 6 35 35 SW 17 28 29.95 1014 10 16.0934 0 0
5:35 pm 17:35 Sunny 72 22 43 6 36 36 WSW 14 22 29.95 1014 10 16.0934 0 0
5:55 pm 17:55 Sunny 71 21.7 42 5.8 36 36 WSW 15 24 29.94 1014 10 16.0934 0 0
6:15 pm 18:15 Sunny 70 21.2 42 5.8 37 37 WSW 14 22 29.95 1014 10 16.0934 0 0
6:35 pm 18:35 Sunny 69 20.7 43 6 38 38 WSW 10 17 29.95 1014 10 16.0934 0 0
6:55 pm 18:55 Sunny 68 20.1 43 6.1 40 40 SW 14 22 29.95 1014 10 16.0934 0 0
7:15 pm 19:15 Clear 66 19.1 44 6.5 44 44 WSW 6 9 29.96 1014 10 16.0934 0 0
7:35 pm 19:35 Clear 64 17.7 45 7.1 50 50 WSW 7 11 29.97 1015 10 16.0934 0 0
7:55 pm 19:55 Clear 64 17.5 45 7.4 52 52 WSW 7 11 29.97 1015 10 16.0934 0 0
8:15 pm 20:15 Clear 62 16.6 45 7.4 55 55 WSW 7 11 29.97 1015 10 16.0934 0 0
8:35 pm 20:35 Clear 60 15.8 45 7.4 58 58 WSW 8 13 29.97 1015 10 16.0934 0 0
8:55 pm 20:55 Clear 59 15.2 45 7.4 60 60 WSW 6 9 29.98 1015 10 16.0934 0 0
9:15 pm 21:15 Clear 57 14 46 7.5 65 65 WSW 5 7 29.98 1015 10 16.0934 0 0
9:35 pm 21:35 Clear 57 13.7 46 7.6 67 67 WSW 5 7 29.97 1015 10 16.0934 0 0
9:55 pm 21:55 Clear 54 12.4 46 8 75 75 SW 5 7 29.97 1015 10 16.0934 0 0
10:15 pm 22:15 Clear 53 11.9 49 9.2 84 84 WSW 6 9 29.97 1015 10 16.0934 0 0
10:35 pm 22:35 Clear 51 10.8 47 8.5 86 86 W 3 6 29.98 1015 10 16.0934 0 0
10:55 pm 22:55 Clear 55 12.5 48 8.8 78 78 W 5 7 29.98 1015 10 16.0934 0 0
11:15 pm 23:15 Clear 51 10.6 47 8.3 86 86 Calm 29.99 1015 10 16.0934 0 0
11:35 pm 23:35 Clear 53 11.9 47 8.5 80 80 Calm 29.98 1015 10 16.0934 0 0
11:55 pm 23:55 Clear 54 12 48 8.7 80 80 Calm 29.98 1015 10 16.0934 0 0

Powered by AerisWeather